| time (UTC) | temp C | wind direction | speed KPH | gust KPH | rain 1hr cm | rain 24hr cm | rain mn cm | humidity % | barometer mb |
| 20260509053328 | 10 | 202 | 1.6 | 3.2 | 0.00 | 0.03 | 0.00 | 91 | 1006.6 |
| 20260509053055 | 10 | 203 | 0.0 | 3.2 | 0.00 | 0.03 | 0.00 | 91 | 1006.7 |
| 20260509053003 | 10 | 203 | 0.0 | 3.2 | 0.00 | 0.03 | 0.00 | 91 | 1006.7 |
| 20260509052850 | 10 | 203 | 1.6 | 3.2 | 0.00 | 0.03 | 0.00 | 91 | 1006.7 |
| 20260509052310 | 10 | 207 | 1.6 | 4.8 | 0.00 | 0.03 | 0.00 | 91 | 1006.8 |
| 20260509051831 | 10 | 207 | 1.6 | 4.8 | 0.00 | 0.03 | 0.00 | 90 | 1006.8 |
| 20260509051600 | 10 | 187 | 0.0 | 3.2 | 0.00 | 0.03 | 0.00 | 90 | 1006.8 |
| 20260509051501 | 10 | 187 | 0.0 | 3.2 | 0.00 | 0.03 | 0.00 | 90 | 1006.8 |
| 20260509051333 | 10 | 187 | 0.0 | 3.2 | 0.00 | 0.03 | 0.00 | 90 | 1006.8 |
| 20260509050815 | 10 | 187 | 1.6 | 3.2 | 0.00 | 0.03 | 0.00 | 90 | 1006.8 |
| 20260509050402 | 10 | 187 | 0.0 | 3.2 | 0.00 | 0.03 | 0.00 | 89 | 1006.7 |
| 20260509050018 | 10 | 187 | 0.0 | 3.2 | 0.00 | 0.03 | 0.00 | 90 | 1006.7 |
| 20260509045821 | 11 | 187 | 0.0 | 3.2 | 0.00 | 0.03 | 0.00 | 89 | 1006.6 |
| 20260509045343 | 11 | 187 | 1.6 | 3.2 | 0.00 | 0.03 | 0.00 | 89 | 1006.7 |
| 20260509044824 | 11 | 187 | 1.6 | 4.8 | 0.00 | 0.03 | 0.00 | 89 | 1006.8 |
| 20260509044546 | 11 | 188 | 0.0 | 4.8 | 0.00 | 0.03 | 0.00 | 89 | 1006.8 |
| 20260509044432 | 11 | 187 | 1.6 | 4.8 | 0.00 | 0.03 | 0.00 | 89 | 1006.9 |
| 20260509043830 | 11 | 191 | 1.6 | 4.8 | 0.00 | 0.03 | 0.00 | 89 | 1006.9 |
| 20260509043331 | 11 | 188 | 1.6 | 4.8 | 0.00 | 0.03 | 0.00 | 88 | 1006.9 |
| 20260509043003 | 11 | 189 | 0.0 | 4.8 | 0.00 | 0.03 | 0.00 | 89 | 1007.0 |
| 20260509042832 | 11 | 189 | 1.6 | 4.8 | 0.00 | 0.03 | 0.00 | 89 | 1006.8 |
| 20260509042312 | 11 | 202 | 0.0 | 6.4 | 0.00 | 0.03 | 0.00 | 88 | 1007.0 |
| 20260509041935 | 11 | 180 | 3.2 | 6.4 | 0.00 | 0.03 | 0.00 | 88 | 1007.0 |
| 20260509041519 | 11 | 173 | 0.0 | 3.2 | 0.00 | 0.03 | 0.00 | 88 | 1006.9 |
| 20260509041354 | 11 | 173 | 0.0 | 3.2 | 0.00 | 0.03 | 0.00 | 88 | 1007.0 |
| 20260509040815 | 11 | 173 | 1.6 | 3.2 | 0.00 | 0.03 | 0.00 | 88 | 1007.0 |
| 20260509040336 | 12 | 178 | 1.6 | 3.2 | 0.00 | 0.03 | 0.00 | 87 | 1007.0 |
| 20260509040019 | 11 | 178 | 0.0 | 3.2 | 0.00 | 0.03 | 0.03 | 87 | 1007.2 |
| 20260509035812 | 12 | 178 | 1.6 | 3.2 | 0.00 | 0.03 | 0.03 | 86 | 1007.1 |
| 20260509035315 | 12 | 178 | 1.6 | 3.2 | 0.00 | 0.03 | 0.03 | 86 | 1007.2 |
| 20260509034814 | 12 | 177 | 1.6 | 4.8 | 0.00 | 0.03 | 0.03 | 86 | 1007.1 |
| 20260509034513 | 12 | 178 | 0.0 | 4.8 | 0.00 | 0.03 | 0.03 | 86 | 1007.2 |
| 20260509034316 | 12 | 178 | 1.6 | 4.8 | 0.00 | 0.03 | 0.03 | 86 | 1007.2 |
| 20260509033818 | 12 | 199 | 1.6 | 3.2 | 0.00 | 0.03 | 0.03 | 85 | 1007.3 |
| 20260509033319 | 12 | 198 | 0.0 | 3.2 | 0.00 | 0.03 | 0.03 | 84 | 1007.3 |
| 20260509033025 | 12 | 198 | 0.0 | 3.2 | 0.00 | 0.03 | 0.03 | 84 | 1007.3 |
| 20260509032821 | 12 | 198 | 0.0 | 3.2 | 0.00 | 0.03 | 0.03 | 84 | 1007.3 |
| 20260509032410 | 12 | 198 | 0.0 | 4.8 | 0.00 | 0.03 | 0.03 | 84 | 1007.3 |
| 20260509031828 | 13 | 200 | 1.6 | 9.7 | 0.00 | 0.03 | 0.03 | 84 | 1007.3 |
| 20260509031525 | 12 | 200 | 1.6 | 9.7 | 0.00 | 0.03 | 0.03 | 84 | 1007.3 |
| 20260509031350 | 13 | 223 | 3.2 | 9.7 | 0.00 | 0.03 | 0.03 | 84 | 1007.3 |
| 20260509030917 | 13 | 225 | 1.6 | 8.0 | 0.00 | 0.03 | 0.03 | 84 | 1007.4 |
| 20260509030834 | 13 | 225 | 1.6 | 8.0 | 0.00 | 0.03 | 0.03 | 84 | 1007.4 |
| 20260509030341 | 12 | 222 | 1.6 | 6.4 | 0.00 | 0.03 | 0.03 | 84 | 1007.5 |
| 20260509030023 | 12 | 223 | 1.6 | 6.4 | 0.00 | 0.03 | 0.03 | 85 | 1007.5 |
| 20260509025820 | 12 | 238 | 1.6 | 6.4 | 0.00 | 0.03 | 0.03 | 85 | 1007.4 |
| 20260509025340 | 12 | 188 | 1.6 | 8.0 | 0.00 | 0.03 | 0.03 | 86 | 1007.5 |
| 20260509024821 | 12 | 205 | 1.6 | 6.4 | 0.00 | 0.03 | 0.03 | 86 | 1007.6 |
| 20260509024553 | 12 | 180 | 1.6 | 6.4 | 0.00 | 0.03 | 0.03 | 87 | 1007.7 |
| 20260509024406 | 12 | 198 | 1.6 | 6.4 | 0.00 | 0.03 | 0.03 | 87 | 1007.6 |
| 20260509023844 | 12 | 188 | 1.6 | 6.4 | 0.00 | 0.03 | 0.03 | 87 | 1007.5 |
| 20260509023324 | 12 | 194 | 1.6 | 8.0 | 0.00 | 0.03 | 0.03 | 88 | 1007.5 |
| 20260509023033 | 12 | 193 | 0.0 | 8.0 | 0.00 | 0.03 | 0.03 | 88 | 1007.6 |
| 20260509022842 | 12 | 180 | 1.6 | 8.0 | 0.00 | 0.03 | 0.03 | 88 | 1007.5 |
| 20260509022324 | 12 | 187 | 3.2 | 9.7 | 0.00 | 0.03 | 0.03 | 89 | 1007.5 |
| 20260509021824 | 12 | 182 | 0.0 | 3.2 | 0.00 | 0.03 | 0.03 | 89 | 1007.5 |
| 20260509021540 | 12 | 182 | 0.0 | 9.7 | 0.00 | 0.03 | 0.03 | 89 | 1007.6 |
| 20260509021411 | 12 | 182 | 1.6 | 9.7 | 0.00 | 0.03 | 0.03 | 89 | 1007.5 |
| 20260509020810 | 12 | 182 | 1.6 | 9.7 | 0.00 | 0.03 | 0.03 | 89 | 1007.5 |
| 20260509020337 | 12 | 190 | 1.6 | 3.2 | 0.00 | 0.03 | 0.03 | 89 | 1007.5 |
| 20260509020003 | 12 | 191 | 0.0 | 1.6 | 0.00 | 0.03 | 0.03 | 89 | 1007.6 |
| 20260509015818 | 12 | 191 | 0.0 | 1.6 | 0.00 | 0.03 | 0.03 | 89 | 1007.5 |
| 20260509015426 | 12 | 191 | 1.6 | 1.6 | 0.00 | 0.03 | 0.03 | 89 | 1007.5 |
| 20260509015322 | 12 | 191 | 1.6 | 1.6 | 0.00 | 0.03 | 0.03 | 89 | 1007.5 |
| 20260509014824 | 12 | 191 | 1.6 | 1.6 | 0.00 | 0.03 | 0.03 | 88 | 1007.5 |
| 20260509014547 | 12 | 191 | 0.0 | 1.6 | 0.00 | 0.03 | 0.03 | 88 | 1007.6 |
| 20260509014325 | 12 | 191 | 0.0 | 1.6 | 0.00 | 0.03 | 0.03 | 87 | 1007.5 |
| 20260509013827 | 12 | 191 | 0.0 | 0.0 | 0.00 | 0.03 | 0.03 | 87 | 1007.4 |
| 20260509013330 | 12 | 191 | 0.0 | 0.0 | 0.00 | 0.03 | 0.03 | 86 | 1007.4 |
| 20260509013043 | 12 | 191 | 0.0 | 0.0 | 0.00 | 0.03 | 0.03 | 86 | 1007.5 |
| 20260509012810 | 12 | 191 | 0.0 | 0.0 | 0.00 | 0.03 | 0.03 | 86 | 1007.4 |
| 20260509012332 | 12 | 191 | 0.0 | 1.6 | 0.00 | 0.03 | 0.03 | 84 | 1007.3 |
| 20260509011833 | 13 | 191 | 0.0 | 1.6 | 0.00 | 0.03 | 0.03 | 84 | 1007.2 |
| 20260509011538 | 12 | 191 | 0.0 | 1.6 | 0.00 | 0.03 | 0.03 | 84 | 1007.2 |
| 20260509011416 | 13 | 191 | 0.0 | 1.6 | 0.00 | 0.03 | 0.03 | 84 | 1007.1 |
| 20260509010852 | 13 | 191 | 0.0 | 1.6 | 0.00 | 0.03 | 0.03 | 83 | 1007.1 |
| 20260509010354 | 13 | 192 | 0.0 | 1.6 | 0.00 | 0.03 | 0.03 | 83 | 1007.1 |
| 20260509010037 | 13 | 192 | 0.0 | 1.6 | 0.00 | 0.36 | 0.03 | 83 | 1007.2 |
| 20260509005813 | 13 | 192 | 0.0 | 1.6 | 0.00 | 0.36 | 0.03 | 83 | 1007.0 |
| 20260509005334 | 14 | 192 | 0.0 | 1.6 | 0.00 | 0.36 | 0.03 | 82 | 1007.0 |
| 20260509004814 | 14 | 192 | 0.0 | 1.6 | 0.00 | 0.36 | 0.03 | 81 | 1007.0 |
| 20260509004536 | 14 | 192 | 0.0 | 0.0 | 0.00 | 0.36 | 0.03 | 81 | 1007.1 |
| 20260509004403 | 15 | 192 | 0.0 | 0.0 | 0.00 | 0.36 | 0.03 | 81 | 1006.9 |
| 20260509004321 | 15 | 192 | 0.0 | 0.0 | 0.00 | 0.36 | 0.03 | 81 | 1006.9 |
| 20260509003843 | 15 | 192 | 0.0 | 1.6 | 0.00 | 0.36 | 0.03 | 80 | 1006.9 |
| 20260509003321 | 15 | 192 | 0.0 | 1.6 | 0.00 | 0.36 | 0.03 | 79 | 1006.9 |
| 20260509003051 | 15 | 192 | 0.0 | 1.6 | 0.00 | 0.36 | 0.03 | 79 | 1006.9 |
| 20260509002843 | 15 | 192 | 0.0 | 4.8 | 0.00 | 0.36 | 0.03 | 79 | 1006.8 |
| 20260509002324 | 15 | 192 | 1.6 | 4.8 | 0.00 | 0.36 | 0.03 | 78 | 1006.9 |
| 20260509001826 | 15 | 192 | 1.6 | 4.8 | 0.00 | 0.36 | 0.03 | 77 | 1006.8 |
| 20260509001529 | 15 | 192 | 3.2 | 4.8 | 0.00 | 0.36 | 0.03 | 77 | 1006.9 |
| 20260509001413 | 15 | 187 | 3.2 | 6.4 | 0.00 | 0.36 | 0.03 | 77 | 1006.8 |
| 20260509000849 | 16 | 203 | 1.6 | 8.0 | 0.00 | 0.36 | 0.03 | 76 | 1006.8 |
| 20260509000349 | 16 | 187 | 3.2 | 8.0 | 0.00 | 0.36 | 0.03 | 76 | 1006.8 |
| 20260509000036 | 16 | 210 | 1.6 | 6.4 | 0.00 | 0.36 | 0.03 | 76 | 1007.0 |
| 20260508235915 | 16 | 187 | 3.2 | 6.4 | 0.00 | 0.36 | 0.03 | 76 | 1006.9 |
| 20260508235812 | 16 | 187 | 3.2 | 6.4 | 0.00 | 0.36 | 0.03 | 76 | 1006.9 |
| 20260508235333 | 16 | 171 | 1.6 | 4.8 | 0.00 | 0.36 | 0.03 | 75 | 1007.0 |
| 20260508234835 | 16 | 213 | 1.6 | 8.0 | 0.00 | 0.36 | 0.03 | 76 | 1007.0 |
| 20260508234606 | 16 | 213 | 1.6 | 8.0 | 0.00 | 0.36 | 0.03 | 76 | 1007.1 |
| 20260508234500 | 16 | 213 | 3.2 | 8.0 | 0.00 | 0.36 | 0.03 | 76 | 1007.0 |
| 20260508234340 | 16 | 207 | 3.2 | 8.0 | 0.00 | 0.36 | 0.03 | 76 | 1007.0 |
| 20260508233820 | 16 | 284 | 4.8 | 8.0 | 0.00 | 0.36 | 0.03 | 76 | 1007.0 |
| 20260508233320 | 16 | 228 | 1.6 | 8.0 | 0.00 | 0.36 | 0.03 | 77 | 1007.1 |
| 20260508233059 | 15 | 189 | 1.6 | 8.0 | 0.00 | 0.36 | 0.03 | 77 | 1007.2 |
| 20260508232843 | 16 | 184 | 4.8 | 8.0 | 0.00 | 0.36 | 0.03 | 77 | 1007.1 |
| 20260508232349 | 16 | 176 | 3.2 | 8.0 | 0.00 | 0.36 | 0.03 | 77 | 1007.1 |
| 20260508231851 | 16 | 193 | 1.6 | 8.0 | 0.00 | 0.36 | 0.03 | 76 | 1007.0 |
| 20260508231517 | 16 | 181 | 1.6 | 11.3 | 0.00 | 0.36 | 0.03 | 75 | 1007.1 |
| 20260508231434 | 16 | 209 | 3.2 | 11.3 | 0.00 | 0.36 | 0.03 | 76 | 1007.0 |
| 20260508230855 | 16 | 177 | 6.4 | 11.3 | 0.00 | 0.36 | 0.03 | 75 | 1007.1 |
| 20260508230334 | 16 | 160 | 1.6 | 8.0 | 0.00 | 0.36 | 0.03 | 75 | 1007.2 |
| 20260508230055 | 16 | 243 | 1.6 | 8.0 | 0.00 | 0.36 | 0.03 | 74 | 1007.3 |
| 20260508225814 | 16 | 224 | 3.2 | 8.0 | 0.00 | 0.36 | 0.03 | 74 | 1007.2 |
| 20260508225403 | 16 | 186 | 3.2 | 8.0 | 0.00 | 0.36 | 0.03 | 74 | 1007.2 |
| 20260508224842 | 16 | 230 | 1.6 | 9.7 | 0.00 | 0.36 | 0.03 | 73 | 1007.1 |
| 20260508224548 | 16 | 230 | 1.6 | 9.7 | 0.00 | 0.36 | 0.03 | 74 | 1007.2 |
| 20260508224323 | 16 | 224 | 3.2 | 9.7 | 0.00 | 0.36 | 0.03 | 73 | 1007.1 |
| 20260508223826 | 16 | 203 | 4.8 | 8.0 | 0.00 | 0.36 | 0.03 | 73 | 1007.1 |
| 20260508223353 | 16 | 282 | 3.2 | 8.0 | 0.00 | 0.36 | 0.03 | 75 | 1007.3 |
| 20260508223044 | 16 | 298 | 3.2 | 8.0 | 0.00 | 0.36 | 0.03 | 74 | 1007.3 |
| 20260508222814 | 16 | 279 | 3.2 | 8.0 | 0.00 | 0.36 | 0.03 | 74 | 1007.3 |
| 20260508222422 | 16 | 275 | 3.2 | 6.4 | 0.00 | 0.36 | 0.03 | 73 | 1007.3 |
| 20260508221841 | 16 | 190 | 3.2 | 6.4 | 0.00 | 0.36 | 0.03 | 74 | 1007.3 |
| 20260508221557 | 16 | 198 | 1.6 | 9.7 | 0.00 | 0.36 | 0.03 | 75 | 1007.3 |
| 20260508221343 | 16 | 188 | 4.8 | 9.7 | 0.00 | 0.36 | 0.03 | 75 | 1007.3 |
| 20260508220823 | 16 | 184 | 4.8 | 9.7 | 0.00 | 0.36 | 0.03 | 75 | 1007.2 |
| 20260508220342 | 16 | 157 | 3.2 | 6.4 | 0.00 | 0.36 | 0.03 | 74 | 1007.3 |
| 20260508220101 | 16 | 191 | 1.6 | 8.0 | 0.00 | 0.36 | 0.03 | 73 | 1007.4 |
| 20260508215843 | 17 | 300 | 3.2 | 6.4 | 0.00 | 0.36 | 0.03 | 74 | 1007.3 |
| 20260508215431 | 17 | 207 | 4.8 | 12.9 | 0.00 | 0.36 | 0.03 | 73 | 1007.3 |
| 20260508215348 | 17 | 207 | 4.8 | 12.9 | 0.00 | 0.36 | 0.03 | 73 | 1007.3 |
| 20260508214829 | 17 | 181 | 6.4 | 12.9 | 0.00 | 0.36 | 0.03 | 73 | 1007.3 |
| 20260508214533 | 17 | 212 | 4.8 | 11.3 | 0.00 | 0.36 | 0.03 | 73 | 1007.4 |
| 20260508214331 | 17 | 229 | 4.8 | 12.9 | 0.00 | 0.36 | 0.03 | 75 | 1007.3 |
| 20260508213812 | 16 | 234 | 3.2 | 12.9 | 0.00 | 0.36 | 0.03 | 75 | 1007.4 |
| 20260508213420 | 16 | 215 | 6.4 | 12.9 | 0.00 | 0.36 | 0.03 | 75 | 1007.4 |
| 20260508213017 | 16 | 175 | 4.8 | 12.9 | 0.00 | 0.36 | 0.03 | 74 | 1007.7 |
| 20260508212821 | 16 | 219 | 6.4 | 12.9 | 0.00 | 0.36 | 0.03 | 75 | 1007.5 |
| 20260508212429 | 16 | 179 | 1.6 | 11.3 | 0.00 | 0.36 | 0.03 | 75 | 1007.6 |
| 20260508211827 | 16 | 199 | 1.6 | 8.0 | 0.00 | 0.36 | 0.03 | 75 | 1007.6 |
| 20260508211557 | 16 | 186 | 3.2 | 8.0 | 0.00 | 0.36 | 0.03 | 74 | 1007.8 |
| 20260508211329 | 16 | 209 | 3.2 | 8.0 | 0.00 | 0.36 | 0.03 | 75 | 1007.7 |
| 20260508210915 | 16 | 268 | 3.2 | 8.0 | 0.00 | 0.36 | 0.03 | 74 | 1007.6 |
| 20260508210832 | 16 | 268 | 3.2 | 8.0 | 0.00 | 0.36 | 0.03 | 74 | 1007.6 |
| 20260508210313 | 16 | 223 | 3.2 | 14.5 | 0.00 | 0.36 | 0.03 | 74 | 1007.8 |
| 20260508210041 | 16 | 227 | 3.2 | 14.5 | 0.00 | 0.36 | 0.03 | 74 | 1007.9 |
| 20260508205812 | 16 | 160 | 3.2 | 14.5 | 0.00 | 0.36 | 0.03 | 74 | 1007.7 |
| 20260508205312 | 16 | 205 | 3.2 | 9.7 | 0.00 | 0.36 | 0.03 | 74 | 1007.8 |
| 20260508204815 | 16 | 201 | 6.4 | 12.9 | 0.00 | 0.36 | 0.03 | 72 | 1007.9 |
| 20260508204527 | 16 | 323 | 3.2 | 12.9 | 0.00 | 0.36 | 0.03 | 72 | 1008.0 |
| 20260508204315 | 16 | 180 | 3.2 | 12.9 | 0.00 | 0.36 | 0.03 | 73 | 1007.9 |
| 20260508203837 | 16 | 324 | 4.8 | 14.5 | 0.00 | 0.36 | 0.03 | 71 | 1008.0 |
| 20260508203403 | 16 | 215 | 6.4 | 14.5 | 0.00 | 0.36 | 0.03 | 71 | 1008.0 |
| 20260508203043 | 16 | 256 | 3.2 | 14.5 | 0.00 | 0.36 | 0.03 | 71 | 1008.2 |
| 20260508202842 | 16 | 161 | 6.4 | 14.5 | 0.00 | 0.36 | 0.03 | 71 | 1008.0 |
| 20260508202409 | 16 | 202 | 6.4 | 16.1 | 0.00 | 0.36 | 0.03 | 71 | 1008.1 |
| 20260508201847 | 16 | 242 | 8.0 | 16.1 | 0.00 | 0.36 | 0.03 | 72 | 1008.2 |
| 20260508201511 | 16 | 203 | 8.0 | 14.5 | 0.00 | 0.36 | 0.03 | 72 | 1008.4 |
| 20260508201416 | 16 | 199 | 8.0 | 14.5 | 0.00 | 0.36 | 0.03 | 72 | 1008.3 |
| 20260508200853 | 16 | 179 | 4.8 | 12.9 | 0.00 | 0.36 | 0.03 | 71 | 1008.3 |
| 20260508200354 | 16 | 281 | 4.8 | 19.3 | 0.00 | 0.36 | 0.03 | 71 | 1008.4 |
| 20260508200008 | 16 | 219 | 8.0 | 19.3 | 0.00 | 0.36 | 0.03 | 71 | 1008.6 |
| 20260508195813 | 16 | 271 | 9.7 | 20.9 | 0.00 | 0.36 | 0.03 | 73 | 1008.5 |
| 20260508195316 | 16 | 242 | 6.4 | 14.5 | 0.00 | 0.36 | 0.03 | 72 | 1008.6 |
| 20260508194835 | 16 | 215 | 8.0 | 17.7 | 0.00 | 0.36 | 0.03 | 72 | 1008.6 |
| 20260508194529 | 16 | 207 | 6.4 | 17.7 | 0.00 | 0.36 | 0.03 | 71 | 1008.7 |
| 20260508194334 | 17 | 153 | 4.8 | 17.7 | 0.00 | 0.36 | 0.03 | 71 | 1008.5 |
| 20260508193901 | 16 | 226 | 8.0 | 16.1 | 0.00 | 0.36 | 0.03 | 75 | 1008.6 |
| 20260508193340 | 16 | 170 | 8.0 | 16.1 | 0.00 | 0.36 | 0.03 | 73 | 1008.7 |
| 20260508193100 | 16 | 173 | 4.8 | 17.7 | 0.00 | 0.36 | 0.03 | 73 | 1008.8 |
| 20260508192840 | 16 | 169 | 6.4 | 17.7 | 0.00 | 0.36 | 0.03 | 72 | 1008.7 |
| 20260508192322 | 16 | 181 | 11.3 | 16.1 | 0.00 | 0.36 | 0.03 | 72 | 1008.9 |
| 20260508191910 | 16 | 191 | 9.7 | 16.1 | 0.00 | 0.36 | 0.03 | 74 | 1008.8 |
| 20260508191828 | 16 | 191 | 9.7 | 16.1 | 0.00 | 0.36 | 0.03 | 74 | 1008.8 |
| 20260508191512 | 16 | 192 | 4.8 | 14.5 | 0.00 | 0.36 | 0.03 | 76 | 1008.9 |
| 20260508191415 | 16 | 262 | 8.0 | 14.5 | 0.00 | 0.36 | 0.03 | 75 | 1008.9 |
| 20260508190814 | 16 | 205 | 6.4 | 14.5 | 0.00 | 0.36 | 0.03 | 75 | 1009.0 |
| 20260508190334 | 16 | 196 | 6.4 | 14.5 | 0.00 | 0.36 | 0.03 | 75 | 1009.2 |
| 20260508190047 | 15 | 117 | 8.0 | 14.5 | 0.00 | 0.36 | 0.03 | 75 | 1009.4 |
| 20260508185855 | 16 | 171 | 8.0 | 14.5 | 0.00 | 0.36 | 0.03 | 74 | 1009.4 |
| 20260508185335 | 16 | 186 | 3.2 | 16.1 | 0.00 | 0.36 | 0.03 | 75 | 1009.4 |
| 20260508184815 | 16 | 215 | 6.4 | 16.1 | 0.00 | 0.36 | 0.03 | 75 | 1009.4 |
| 20260508184549 | 16 | 186 | 6.4 | 16.1 | 0.00 | 0.36 | 0.03 | 75 | 1009.6 |
| 20260508184400 | 16 | 209 | 4.8 | 16.1 | 0.00 | 0.36 | 0.03 | 76 | 1009.5 |
| 20260508183904 | 16 | 217 | 6.4 | 14.5 | 0.00 | 0.36 | 0.03 | 75 | 1009.4 |
| 20260508183411 | 16 | 185 | 6.4 | 19.3 | 0.00 | 0.36 | 0.03 | 75 | 1009.4 |
| 20260508183055 | 16 | 205 | 8.0 | 19.3 | 0.00 | 0.36 | 0.03 | 75 | 1009.6 |
| 20260508182850 | 16 | 203 | 8.0 | 19.3 | 0.00 | 0.36 | 0.03 | 74 | 1009.5 |
| 20260508182351 | 16 | 162 | 8.0 | 16.1 | 0.00 | 0.36 | 0.03 | 75 | 1009.5 |
| 20260508181813 | 16 | 264 | 8.0 | 16.1 | 0.00 | 0.36 | 0.03 | 75 | 1009.5 |
| 20260508181548 | 16 | 155 | 6.4 | 16.1 | 0.00 | 0.36 | 0.03 | 74 | 1009.8 |
| 20260508181313 | 16 | 217 | 11.3 | 16.1 | 0.00 | 0.36 | 0.03 | 74 | 1009.6 |
| 20260508180817 | 16 | 184 | 6.4 | 16.1 | 0.00 | 0.36 | 0.03 | 74 | 1009.7 |
| 20260508180338 | 16 | 214 | 8.0 | 16.1 | 0.00 | 0.36 | 0.03 | 74 | 1009.6 |
| 20260508180011 | 16 | 140 | 4.8 | 14.5 | 0.00 | 0.36 | 0.03 | 72 | 1010.0 |
| 20260508175820 | 16 | 226 | 4.8 | 14.5 | 0.00 | 0.36 | 0.03 | 71 | 1009.7 |
| 20260508175338 | 16 | 184 | 3.2 | 12.9 | 0.00 | 0.36 | 0.03 | 70 | 1009.6 |
| 20260508174905 | 16 | 201 | 6.4 | 14.5 | 0.00 | 0.36 | 0.03 | 71 | 1009.8 |
| 20260508174612 | 16 | 207 | 8.0 | 14.5 | 0.00 | 0.36 | 0.03 | 71 | 1010.1 |
| 20260508174409 | 16 | 188 | 8.0 | 14.5 | 0.00 | 0.36 | 0.03 | 72 | 1009.8 |
| 20260508173850 | 16 | 205 | 4.8 | 11.3 | 0.00 | 0.36 | 0.03 | 70 | 1009.8 |
| 20260508173351 | 16 | 312 | 3.2 | 11.3 | 0.00 | 0.36 | 0.03 | 70 | 1009.9 |
| 20260508173053 | 16 | 198 | 8.0 | 11.3 | 0.00 | 0.36 | 0.03 | 69 | 1010.2 |
| 20260508172830 | 16 | 238 | 4.8 | 12.9 | 0.00 | 0.36 | 0.03 | 72 | 1010.2 |
| 20260508172352 | 16 | 169 | 8.0 | 14.5 | 0.00 | 0.36 | 0.03 | 69 | 1010.3 |
| 20260508171832 | 16 | 221 | 9.7 | 16.1 | 0.00 | 0.36 | 0.03 | 70 | 1010.5 |
| 20260508171512 | 16 | 157 | 3.2 | 8.0 | 0.00 | 0.36 | 0.03 | 67 | 1010.6 |
| 20260508171353 | 16 | 204 | 4.8 | 8.0 | 0.00 | 0.36 | 0.03 | 68 | 1010.5 |
| 20260508170854 | 16 | 230 | 3.2 | 9.7 | 0.00 | 0.36 | 0.03 | 67 | 1010.4 |
| 20260508170313 | 16 | 196 | 3.2 | 11.3 | 0.00 | 0.36 | 0.03 | 68 | 1010.4 |
| 20260508170048 | 16 | 159 | 1.6 | 11.3 | 0.00 | 0.36 | 0.03 | 69 | 1010.7 |
| 20260508165814 | 16 | 322 | 1.6 | 11.3 | 0.00 | 0.36 | 0.03 | 66 | 1010.6 |
| 20260508165335 | 16 | 290 | 3.2 | 8.0 | 0.00 | 0.36 | 0.03 | 65 | 1010.6 |
| 20260508164836 | 16 | 264 | 4.8 | 11.3 | 0.00 | 0.36 | 0.03 | 69 | 1010.8 |
| 20260508164521 | 16 | 273 | 4.8 | 11.3 | 0.00 | 0.36 | 0.03 | 68 | 1011.0 |
| 20260508164354 | 16 | 315 | 3.2 | 11.3 | 0.00 | 0.36 | 0.03 | 65 | 1010.8 |
| 20260508163840 | 16 | 238 | 4.8 | 11.3 | 0.00 | 0.36 | 0.03 | 63 | 1010.8 |
| 20260508163337 | 16 | 173 | 4.8 | 12.9 | 0.00 | 0.36 | 0.03 | 63 | 1010.9 |
| 20260508163013 | 15 | 215 | 6.4 | 12.9 | 0.00 | 0.36 | 0.03 | 68 | 1011.1 |
| 20260508162816 | 16 | 140 | 4.8 | 12.9 | 0.00 | 0.36 | 0.03 | 73 | 1011.0 |
| 20260508162316 | 15 | 119 | 1.6 | 12.9 | 0.00 | 0.36 | 0.03 | 72 | 1011.0 |
| 20260508161816 | 15 | 196 | 6.4 | 9.7 | 0.00 | 0.36 | 0.03 | 77 | 1011.2 |
| 20260508161556 | 15 | 153 | 1.6 | 9.7 | 0.00 | 0.36 | 0.03 | 75 | 1011.4 |
| 20260508161402 | 15 | 200 | 4.8 | 9.7 | 0.00 | 0.36 | 0.03 | 77 | 1011.2 |
| 20260508160841 | 14 | 315 | 3.2 | 14.5 | 0.00 | 0.36 | 0.03 | 74 | 1011.3 |
| 20260508160340 | 15 | 321 | 4.8 | 14.5 | 0.00 | 0.36 | 0.03 | 77 | 1011.3 |
| 20260508160008 | 14 | 237 | 1.6 | 12.9 | 0.00 | 0.36 | 0.03 | 80 | 1011.6 |
| 20260508155817 | 14 | 278 | 4.8 | 12.9 | 0.00 | 0.36 | 0.03 | 79 | 1011.3 |
| 20260508155318 | 14 | 330 | 4.8 | 12.9 | 0.00 | 0.36 | 0.03 | 80 | 1011.3 |
| 20260508154924 | 14 | 269 | 6.4 | 12.9 | 0.00 | 0.36 | 0.03 | 82 | 1011.3 |
| 20260508154842 | 14 | 269 | 6.4 | 12.9 | 0.00 | 0.36 | 0.03 | 82 | 1011.3 |
| 20260508154552 | 13 | 221 | 3.2 | 11.3 | 0.00 | 0.36 | 0.03 | 80 | 1011.6 |
| 20260508154322 | 14 | 300 | 6.4 | 9.7 | 0.00 | 0.36 | 0.03 | 79 | 1011.3 |
| 20260508153823 | 14 | 222 | 4.8 | 11.3 | 0.00 | 0.36 | 0.03 | 81 | 1011.3 |
| 20260508153425 | 13 | 131 | 4.8 | 11.3 | 0.00 | 0.36 | 0.03 | 82 | 1011.3 |
| 20260508153042 | 13 | 188 | 6.4 | 9.7 | 0.00 | 0.36 | 0.03 | 82 | 1011.7 |
| 20260508152845 | 13 | 202 | 4.8 | 6.4 | 0.00 | 0.36 | 0.03 | 82 | 1011.4 |
| 20260508152411 | 13 | 282 | 4.8 | 12.9 | 0.00 | 0.36 | 0.03 | 82 | 1011.3 |
| 20260508152328 | 13 | 282 | 4.8 | 12.9 | 0.00 | 0.36 | 0.03 | 82 | 1011.3 |
| 20260508151937 | 13 | 221 | 6.4 | 12.9 | 0.00 | 0.36 | 0.03 | 82 | 1011.3 |
| 20260508151834 | 13 | 221 | 6.4 | 12.9 | 0.00 | 0.36 | 0.03 | 82 | 1011.3 |
| 20260508151602 | 13 | 264 | 4.8 | 12.9 | 0.00 | 0.36 | 0.03 | 84 | 1011.5 |
| 20260508151508 | 13 | 303 | 4.8 | 12.9 | 0.00 | 0.36 | 0.03 | 83 | 1011.4 |
| 20260508151354 | 13 | 164 | 3.2 | 12.9 | 0.00 | 0.36 | 0.03 | 84 | 1011.2 |
| 20260508150812 | 13 | 198 | 4.8 | 9.7 | 0.00 | 0.36 | 0.03 | 84 | 1011.2 |
| 20260508150313 | 12 | 215 | 4.8 | 9.7 | 0.00 | 0.36 | 0.03 | 84 | 1011.2 |
| 20260508150008 | 12 | 218 | 3.2 | 8.0 | 0.00 | 0.36 | 0.03 | 86 | 1011.4 |
| 20260508145814 | 12 | 187 | 3.2 | 8.0 | 0.00 | 0.36 | 0.03 | 84 | 1011.2 |
| 20260508145335 | 12 | 219 | 1.6 | 8.0 | 0.00 | 0.36 | 0.03 | 85 | 1011.2 |
| 20260508144815 | 12 | 223 | 4.8 | 8.0 | 0.00 | 0.36 | 0.03 | 86 | 1011.1 |
| 20260508144535 | 12 | 186 | 3.2 | 9.7 | 0.00 | 0.36 | 0.03 | 86 | 1011.3 |
| 20260508144316 | 12 | 210 | 4.8 | 9.7 | 0.00 | 0.36 | 0.03 | 87 | 1011.2 |
| 20260508143923 | 11 | 223 | 6.4 | 9.7 | 0.00 | 0.36 | 0.03 | 87 | 1011.2 |
| 20260508143841 | 11 | 223 | 6.4 | 9.7 | 0.00 | 0.36 | 0.03 | 87 | 1011.2 |
| 20260508143320 | 11 | 200 | 3.2 | 8.0 | 0.00 | 0.36 | 0.03 | 91 | 1011.3 |
| 20260508143044 | 11 | 211 | 3.2 | 8.0 | 0.00 | 0.36 | 0.03 | 89 | 1011.6 |
| 20260508142836 | 11 | 198 | 4.8 | 9.7 | 0.00 | 0.36 | 0.03 | 90 | 1011.4 |
| 20260508142403 | 11 | 237 | 3.2 | 8.0 | 0.00 | 0.36 | 0.03 | 90 | 1011.7 |
| 20260508142321 | 11 | 237 | 3.2 | 8.0 | 0.00 | 0.36 | 0.03 | 90 | 1011.7 |
| 20260508141909 | 10 | 205 | 3.2 | 8.0 | 0.00 | 0.36 | 0.03 | 90 | 1011.6 |
| 20260508141543 | 10 | 259 | 4.8 | 11.3 | 0.00 | 0.36 | 0.03 | 91 | 1011.9 |
| 20260508141329 | 10 | 178 | 4.8 | 11.3 | 0.00 | 0.36 | 0.03 | 91 | 1011.6 |
| 20260508140917 | 10 | 215 | 6.4 | 11.3 | 0.00 | 0.36 | 0.03 | 93 | 1011.7 |
| 20260508140813 | 10 | 215 | 6.4 | 11.3 | 0.00 | 0.36 | 0.03 | 93 | 1011.7 |
| 20260508140334 | 10 | 301 | 3.2 | 9.7 | 0.00 | 0.36 | 0.03 | 94 | 1011.7 |
| 20260508140058 | 10 | 262 | 4.8 | 9.7 | 0.00 | 0.36 | 0.03 | 94 | 1012.1 |
| 20260508135834 | 10 | 232 | 4.8 | 9.7 | 0.00 | 0.36 | 0.03 | 94 | 1011.9 |
| 20260508135313 | 10 | 217 | 6.4 | 9.7 | 0.00 | 0.36 | 0.03 | 96 | 1011.9 |
| 20260508134813 | 9 | 219 | 3.2 | 9.7 | 0.00 | 0.36 | 0.03 | 96 | 1012.0 |
| 20260508134522 | 9 | 207 | 1.6 | 9.7 | 0.00 | 0.36 | 0.03 | 96 | 1012.2 |
| 20260508134315 | 9 | 207 | 3.2 | 9.7 | 0.00 | 0.36 | 0.03 | 96 | 1011.9 |
| 20260508133837 | 9 | 221 | 4.8 | 9.7 | 0.00 | 0.36 | 0.03 | 97 | 1012.0 |
| 20260508133317 | 9 | 178 | 4.8 | 6.4 | 0.00 | 0.36 | 0.03 | 97 | 1011.9 |
| 20260508133048 | 8 | 214 | 0.0 | 4.8 | 0.00 | 0.36 | 0.03 | 97 | 1012.1 |
| 20260508132905 | 9 | 214 | 0.0 | 4.8 | 0.00 | 0.36 | 0.03 | 97 | 1011.8 |
| 20260508132823 | 9 | 214 | 0.0 | 4.8 | 0.00 | 0.36 | 0.03 | 97 | 1011.8 |
| 20260508132426 | 8 | 214 | 3.2 | 6.4 | 0.00 | 0.36 | 0.03 | 97 | 1011.7 |
| 20260508132344 | 8 | 214 | 3.2 | 6.4 | 0.00 | 0.36 | 0.03 | 97 | 1011.7 |
| 20260508131843 | 8 | 205 | 1.6 | 6.4 | 0.00 | 0.36 | 0.03 | 97 | 1011.8 |
| 20260508131524 | 8 | 205 | 3.2 | 6.4 | 0.00 | 0.36 | 0.03 | 97 | 1012.1 |
| 20260508131323 | 8 | 201 | 1.6 | 6.4 | 0.00 | 0.36 | 0.03 | 97 | 1011.8 |
| 20260508130824 | 8 | 236 | 0.0 | 3.2 | 0.00 | 0.36 | 0.03 | 97 | 1011.7 |
| 20260508130325 | 8 | 234 | 0.0 | 4.8 | 0.00 | 0.36 | 0.03 | 97 | 1011.7 |
| 20260508130028 | 8 | 234 | 1.6 | 4.8 | 0.00 | 0.36 | 0.03 | 97 | 1012.0 |
| 20260508125847 | 8 | 234 | 0.0 | 4.8 | 0.00 | 0.36 | 0.03 | 97 | 1011.8 |
| 20260508125347 | 8 | 234 | 0.0 | 1.6 | 0.00 | 0.36 | 0.03 | 97 | 1011.8 |
| 20260508124915 | 8 | 205 | 0.0 | 0.0 | 0.00 | 0.36 | 0.03 | 98 | 1011.9 |
| 20260508124537 | 8 | 205 | 0.0 | 0.0 | 0.00 | 0.36 | 0.03 | 98 | 1012.2 |
| 20260508124354 | 8 | 205 | 0.0 | 0.0 | 0.00 | 0.36 | 0.03 | 98 | 1011.8 |
| 20260508123812 | 8 | 205 | 0.0 | 0.0 | 0.00 | 0.36 | 0.03 | 98 | 1011.6 |
| 20260508123335 | 7 | 205 | 0.0 | 0.0 | 0.00 | 0.36 | 0.03 | 98 | 1011.6 |
| 20260508123014 | 7 | 205 | 0.0 | 0.0 | 0.00 | 0.36 | 0.03 | 98 | 1012.1 |
| 20260508122815 | 7 | 205 | 0.0 | 0.0 | 0.00 | 0.36 | 0.03 | 98 | 1011.8 |
| 20260508122336 | 7 | 206 | 0.0 | 0.0 | 0.00 | 0.36 | 0.03 | 98 | 1011.7 |
| 20260508121815 | 7 | 206 | 0.0 | 0.0 | 0.00 | 0.36 | 0.03 | 98 | 1011.9 |
| 20260508121517 | 7 | 206 | 0.0 | 0.0 | 0.00 | 0.36 | 0.03 | 98 | 1012.2 |
| 20260508121404 | 7 | 206 | 0.0 | 0.0 | 0.00 | 0.36 | 0.03 | 98 | 1011.8 |
| 20260508121321 | 7 | 206 | 0.0 | 0.0 | 0.00 | 0.36 | 0.03 | 98 | 1011.8 |
| 20260508120818 | 7 | 209 | 0.0 | 0.0 | 0.00 | 0.36 | 0.03 | 98 | 1011.8 |
| 20260508120337 | 6 | 201 | 0.0 | 0.0 | 0.00 | 0.36 | 0.03 | 98 | 1011.6 |
| 20260508120030 | 6 | 201 | 0.0 | 0.0 | 0.00 | 0.36 | 0.03 | 98 | 1012.0 |
| 20260508115836 | 6 | 201 | 0.0 | 0.0 | 0.00 | 0.36 | 0.03 | 98 | 1011.6 |
| 20260508115357 | 6 | 201 | 0.0 | 0.0 | 0.00 | 0.36 | 0.03 | 97 | 1011.5 |
| 20260508114835 | 6 | 201 | 0.0 | 0.0 | 0.00 | 0.36 | 0.03 | 97 | 1011.6 |
| 20260508114528 | 5 | 201 | 0.0 | 0.0 | 0.00 | 0.36 | 0.03 | 97 | 1011.9 |
| 20260508114356 | 6 | 201 | 0.0 | 0.0 | 0.00 | 0.36 | 0.03 | 97 | 1011.6 |
| 20260508113836 | 5 | 201 | 0.0 | 0.0 | 0.00 | 0.36 | 0.03 | 97 | 1011.3 |
| 20260508113317 | 5 | 201 | 0.0 | 0.0 | 0.00 | 0.36 | 0.03 | 97 | 1011.2 |
| 20260508113005 | 5 | 201 | 0.0 | 0.0 | 0.00 | 0.36 | 0.03 | 97 | 1011.5 |
| 20260508112844 | 5 | 201 | 0.0 | 0.0 | 0.00 | 0.36 | 0.03 | 96 | 1011.2 |
| 20260508112324 | 5 | 201 | 0.0 | 0.0 | 0.00 | 0.36 | 0.03 | 96 | 1011.3 |
| 20260508111847 | 5 | 201 | 0.0 | 0.0 | 0.00 | 0.36 | 0.03 | 96 | 1011.3 |
| 20260508111521 | 5 | 201 | 0.0 | 0.0 | 0.00 | 0.36 | 0.03 | 96 | 1011.6 |
| 20260508111328 | 5 | 201 | 0.0 | 0.0 | 0.00 | 0.36 | 0.03 | 96 | 1011.3 |
| 20260508110849 | 5 | 201 | 0.0 | 0.0 | 0.00 | 0.36 | 0.03 | 96 | 1011.3 |
| 20260508110310 | 5 | 201 | 0.0 | 0.0 | 0.00 | 0.36 | 0.03 | 96 | 1011.3 |
| 20260508110051 | 5 | 201 | 0.0 | 0.0 | 0.00 | 0.36 | 0.03 | 96 | 1011.7 |
| 20260508105814 | 5 | 201 | 0.0 | 0.0 | 0.00 | 0.36 | 0.03 | 96 | 1011.2 |
| 20260508105316 | 5 | 201 | 0.0 | 0.0 | 0.00 | 0.36 | 0.03 | 96 | 1011.2 |
| 20260508104835 | 5 | 201 | 0.0 | 0.0 | 0.00 | 0.36 | 0.03 | 96 | 1011.3 |
| 20260508104515 | 5 | 201 | 0.0 | 1.6 | 0.00 | 0.36 | 0.03 | 96 | 1011.6 |
| 20260508104336 | 5 | 201 | 0.0 | 1.6 | 0.00 | 0.36 | 0.03 | 96 | 1011.2 |
| 20260508103834 | 5 | 201 | 0.0 | 1.6 | 0.00 | 0.36 | 0.03 | 96 | 1011.2 |
| 20260508103335 | 5 | 201 | 0.0 | 0.0 | 0.00 | 0.36 | 0.03 | 96 | 1011.1 |
| 20260508103107 | 4 | 201 | 0.0 | 0.0 | 0.00 | 0.36 | 0.03 | 96 | 1011.5 |
| 20260508102901 | 5 | 201 | 0.0 | 0.0 | 0.00 | 0.36 | 0.03 | 96 | 1011.2 |
| 20260508102319 | 5 | 201 | 0.0 | 0.0 | 0.00 | 0.36 | 0.03 | 96 | 1011.1 |
| 20260508101843 | 5 | 201 | 0.0 | 0.0 | 0.00 | 0.36 | 0.03 | 96 | 1011.3 |
| 20260508101520 | 4 | 201 | 0.0 | 0.0 | 0.00 | 0.36 | 0.03 | 96 | 1011.8 |
| 20260508101324 | 5 | 201 | 0.0 | 0.0 | 0.00 | 0.36 | 0.03 | 96 | 1011.3 |
| 20260508100931 | 5 | 201 | 0.0 | 0.0 | 0.00 | 0.36 | 0.03 | 96 | 1011.1 |
| 20260508100417 | 5 | 201 | 0.0 | 0.0 | 0.00 | 0.36 | 0.03 | 96 | 1011.2 |
| 20260508100024 | 4 | 201 | 0.0 | 0.0 | 0.00 | 0.36 | 0.03 | 96 | 1011.5 |
| 20260508095858 | 5 | 201 | 0.0 | 0.0 | 0.00 | 0.36 | 0.03 | 96 | 1011.2 |
| 20260508095319 | 5 | 201 | 0.0 | 0.0 | 0.00 | 0.36 | 0.03 | 96 | 1011.3 |
| 20260508094839 | 4 | 201 | 0.0 | 0.0 | 0.00 | 0.36 | 0.03 | 96 | 1011.2 |
| 20260508094506 | 4 | 201 | 0.0 | 0.0 | 0.00 | 0.36 | 0.03 | 96 | 1011.5 |
| 20260508094341 | 4 | 201 | 0.0 | 0.0 | 0.00 | 0.36 | 0.03 | 96 | 1011.1 |
| 20260508093907 | 4 | 201 | 0.0 | 0.0 | 0.00 | 0.36 | 0.03 | 96 | 1011.2 |
| 20260508093414 | 4 | 201 | 0.0 | 0.0 | 0.00 | 0.36 | 0.03 | 96 | 1011.3 |
| 20260508093035 | 3 | 201 | 0.0 | 0.0 | 0.00 | 0.36 | 0.03 | 96 | 1011.6 |
| 20260508092852 | 4 | 201 | 0.0 | 0.0 | 0.00 | 0.36 | 0.03 | 96 | 1011.2 |
| 20260508092313 | 4 | 201 | 0.0 | 0.0 | 0.00 | 0.36 | 0.03 | 96 | 1011.3 |
| 20260508091832 | 3 | 201 | 0.0 | 0.0 | 0.00 | 0.36 | 0.03 | 95 | 1011.3 |
| 20260508091540 | 3 | 201 | 0.0 | 0.0 | 0.00 | 0.36 | 0.03 | 95 | 1011.7 |
| 20260508091314 | 3 | 201 | 0.0 | 0.0 | 0.00 | 0.36 | 0.03 | 95 | 1011.2 |
| 20260508090844 | 3 | 201 | 0.0 | 0.0 | 0.00 | 0.36 | 0.03 | 95 | 1011.2 |
| 20260508090325 | 3 | 201 | 0.0 | 0.0 | 0.00 | 0.36 | 0.03 | 95 | 1011.3 |
| 20260508090010 | 3 | 201 | 0.0 | 0.0 | 0.03 | 0.36 | 0.03 | 95 | 1011.6 |
| 20260508085827 | 3 | 201 | 0.0 | 0.0 | 0.03 | 0.36 | 0.03 | 95 | 1011.2 |
| 20260508084827 | 3 | 201 | 0.0 | 0.0 | 0.03 | 0.36 | 0.03 | 95 | 1011.3 |
| 20260508084557 | 3 | 201 | 0.0 | 0.0 | 0.03 | 0.36 | 0.03 | 95 | 1011.7 |
| 20260508084502 | 3 | 201 | 0.0 | 0.0 | 0.03 | 0.36 | 0.03 | 95 | 1011.7 |
| 20260508084348 | 4 | 201 | 0.0 | 0.0 | 0.03 | 0.36 | 0.03 | 95 | 1011.3 |
| 20260508083850 | 4 | 201 | 0.0 | 0.0 | 0.03 | 0.36 | 0.03 | 95 | 1011.2 |
| 20260508083329 | 4 | 201 | 0.0 | 0.0 | 0.03 | 0.36 | 0.03 | 95 | 1011.2 |
| 20260508083055 | 3 | 201 | 0.0 | 0.0 | 0.03 | 0.36 | 0.03 | 95 | 1011.5 |
| 20260508082832 | 4 | 201 | 0.0 | 0.0 | 0.03 | 0.36 | 0.03 | 95 | 1011.1 |
| 20260508082352 | 4 | 201 | 0.0 | 0.0 | 0.03 | 0.36 | 0.03 | 94 | 1011.2 |
| 20260508081812 | 4 | 201 | 0.0 | 0.0 | 0.03 | 0.36 | 0.03 | 95 | 1011.2 |
| 20260508081509 | 4 | 201 | 0.0 | 0.0 | 0.03 | 0.36 | 0.03 | 95 | 1011.6 |
| 20260508081334 | 4 | 201 | 0.0 | 0.0 | 0.03 | 0.36 | 0.03 | 95 | 1011.3 |
| 20260508080901 | 5 | 201 | 0.0 | 0.0 | 0.03 | 0.36 | 0.03 | 95 | 1011.3 |
| 20260508080320 | 5 | 201 | 0.0 | 0.0 | 0.03 | 0.36 | 0.03 | 95 | 1011.2 |
| 20260508080047 | 4 | 201 | 0.0 | 0.0 | 0.00 | 0.33 | 0.00 | 95 | 1011.7 |
| 20260508075822 | 5 | 201 | 0.0 | 0.0 | 0.00 | 0.33 | 0.00 | 95 | 1011.2 |
| 20260508075323 | 5 | 201 | 0.0 | 0.0 | 0.00 | 0.33 | 0.00 | 95 | 1011.3 |
| 20260508074826 | 5 | 201 | 0.0 | 0.0 | 0.00 | 0.33 | 0.00 | 95 | 1011.3 |
| 20260508074539 | 4 | 201 | 0.0 | 0.0 | 0.00 | 0.33 | 0.00 | 95 | 1011.7 |
| 20260508074414 | 5 | 201 | 0.0 | 0.0 | 0.00 | 0.33 | 0.00 | 95 | 1011.3 |
| 20260508073832 | 5 | 201 | 0.0 | 0.0 | 0.00 | 0.33 | 0.00 | 95 | 1011.3 |
| 20260508073332 | 5 | 201 | 0.0 | 0.0 | 0.00 | 0.33 | 0.00 | 94 | 1011.3 |
| 20260508073043 | 5 | 201 | 0.0 | 0.0 | 0.00 | 0.33 | 0.00 | 94 | 1011.8 |
| 20260508072847 | 5 | 201 | 0.0 | 0.0 | 0.00 | 0.33 | 0.00 | 94 | 1011.3 |
| 20260508072313 | 5 | 201 | 0.0 | 0.0 | 0.00 | 0.33 | 0.00 | 94 | 1011.3 |
| 20260508071915 | 5 | 201 | 0.0 | 0.0 | 0.00 | 0.33 | 0.00 | 94 | 1011.3 |
| 20260508071513 | 5 | 201 | 0.0 | 0.0 | 0.00 | 0.33 | 0.00 | 94 | 1011.7 |
| 20260508071315 | 5 | 201 | 0.0 | 0.0 | 0.00 | 0.33 | 0.00 | 94 | 1011.4 |
| 20260508070837 | 5 | 201 | 0.0 | 0.0 | 0.00 | 0.33 | 0.00 | 94 | 1011.3 |
| 20260508070317 | 5 | 201 | 0.0 | 0.0 | 0.00 | 0.33 | 0.00 | 94 | 1011.3 |
| 20260508070039 | 5 | 201 | 0.0 | 0.0 | 0.00 | 0.33 | 0.00 | 94 | 1011.8 |
| 20260508065926 | 5 | 201 | 0.0 | 1.6 | 0.00 | 0.33 | 0.00 | 94 | 1011.4 |
| 20260508065412 | 5 | 201 | 0.0 | 1.6 | 0.00 | 0.33 | 0.00 | 94 | 1011.3 |
| 20260508064916 | 6 | 201 | 0.0 | 1.6 | 0.00 | 0.33 | 0.00 | 94 | 1011.4 |
| 20260508064538 | 5 | 201 | 0.0 | 1.6 | 0.00 | 0.33 | 0.00 | 95 | 1011.8 |
| 20260508064335 | 6 | 201 | 0.0 | 1.6 | 0.00 | 0.33 | 0.00 | 95 | 1011.4 |
| 20260508063900 | 6 | 201 | 0.0 | 1.6 | 0.00 | 0.33 | 0.00 | 95 | 1011.3 |
| 20260508063339 | 6 | 201 | 1.6 | 3.2 | 0.00 | 0.33 | 0.00 | 95 | 1011.3 |
| 20260508063101 | 6 | 201 | 0.0 | 3.2 | 0.00 | 0.33 | 0.00 | 95 | 1011.7 |
| 20260508062841 | 6 | 201 | 1.6 | 3.2 | 0.00 | 0.33 | 0.00 | 95 | 1011.3 |
| 20260508062427 | 6 | 201 | 0.0 | 8.0 | 0.00 | 0.33 | 0.00 | 95 | 1011.3 |
| 20260508061845 | 6 | 201 | 1.6 | 8.0 | 0.00 | 0.33 | 0.00 | 95 | 1011.4 |
| 20260508061551 | 6 | 201 | 1.6 | 8.0 | 0.00 | 0.33 | 0.00 | 95 | 1011.8 |
| 20260508061325 | 6 | 201 | 1.6 | 3.2 | 0.00 | 0.33 | 0.00 | 95 | 1011.4 |
| 20260508060932 | 6 | 201 | 0.0 | 4.8 | 0.00 | 0.33 | 0.00 | 95 | 1011.4 |
| 20260508060850 | 6 | 201 | 0.0 | 4.8 | 0.00 | 0.33 | 0.00 | 95 | 1011.4 |
| 20260508060349 | 6 | 201 | 1.6 | 4.8 | 0.00 | 0.33 | 0.00 | 95 | 1011.5 |
| 20260508060013 | 6 | 201 | 1.6 | 4.8 | 0.00 | 0.33 | 0.00 | 95 | 1011.9 |
| 20260508055830 | 6 | 201 | 3.2 | 4.8 | 0.00 | 0.33 | 0.00 | 95 | 1011.6 |
| 20260508055350 | 6 | 201 | 0.0 | 4.8 | 0.00 | 0.33 | 0.00 | 95 | 1011.6 |
| 20260508054933 | 6 | 201 | 0.0 | 6.4 | 0.00 | 0.33 | 0.00 | 95 | 1011.6 |
| 20260508054534 | 6 | 201 | 1.6 | 8.0 | 0.00 | 0.33 | 0.00 | 95 | 1011.9 |
| 20260508054331 | 6 | 204 | 3.2 | 8.0 | 0.00 | 0.33 | 0.00 | 95 | 1011.7 |